TimeMDT,TemperatureF,Dew PointF,Humidity,Sea Level PressureIn,VisibilityMPH,Wind Direction,Wind SpeedMPH,Gust SpeedMPH,PrecipitationIn,Events,Conditions,WindDirDegrees,DateUTC
12:53 AM,37.9,28.9,70,29.83,10.0,WSW,17.3,-,N/A,,Partly Cloudy,250,2013-03-16 06:53:00
1:53 AM,37.9,28.0,68,29.80,10.0,SW,13.8,-,N/A,,Clear,220,2013-03-16 07:53:00
2:53 AM,35.1,26.1,70,29.82,-9999.0,SSW,12.7,-,N/A,,Clear,200,2013-03-16 08:53:00
3:53 AM,34.0,26.1,73,29.81,10.0,SW,10.4,-,N/A,,Clear,220,2013-03-16 09:53:00
4:53 AM,34.0,25.0,70,29.81,-9999.0,WSW,10.4,-,N/A,,Clear,250,2013-03-16 10:53:00
5:53 AM,32.0,26.1,79,29.84,10.0,ESE,4.6,-,N/A,,Clear,120,2013-03-16 11:53:00
6:53 AM,30.9,24.1,76,29.86,10.0,SE,19.6,-,N/A,,Clear,140,2013-03-16 12:53:00
7:53 AM,30.9,25.0,79,29.86,10.0,SE,17.3,-,N/A,,Clear,140,2013-03-16 13:53:00
8:53 AM,32.0,26.1,79,29.85,10.0,SSE,24.2,31.1,N/A,,Clear,160,2013-03-16 14:53:00
9:53 AM,34.0,27.0,75,29.84,-9999.0,SSE,25.3,29.9,N/A,,Mostly Cloudy,160,2013-03-16 15:53:00
10:53 AM,39.0,28.0,65,29.79,-9999.0,SSE,19.6,-,N/A,,Clear,150,2013-03-16 16:53:00
11:51 AM,46.4,21.2,37,29.89,-9999.0,WSW,16.1,19.6,N/A,,Scattered Clouds,240,2013-03-16 17:51:00
11:53 AM,46.9,21.9,37,29.75,-9999.0,SW,15.0,19.6,N/A,,Scattered Clouds,230,2013-03-16 17:53:00
12:26 PM,44.6,24.8,46,29.89,-9999.0,North,15.0,20.7,N/A,,Overcast,350,2013-03-16 18:26:00
12:53 PM,44.1,27.0,51,29.77,10.0,WNW,24.2,31.1,N/A,,Overcast,300,2013-03-16 18:53:00
1:53 PM,45.0,26.1,48,29.75,10.0,West,18.4,-,N/A,,Scattered Clouds,270,2013-03-16 19:53:00
2:53 PM,46.9,21.9,37,29.73,-9999.0,West,25.3,33.4,N/A,,Scattered Clouds,270,2013-03-16 20:53:00
3:53 PM,48.9,19.0,31,29.69,-9999.0,WNW,28.8,35.7,N/A,,Clear,290,2013-03-16 21:53:00
4:53 PM,48.9,14.0,25,29.70,10.0,WNW,21.9,33.4,N/A,,Partly Cloudy,290,2013-03-16 22:53:00
5:53 PM,46.9,9.0,21,29.72,-9999.0,NW,24.2,32.2,N/A,,Clear,310,2013-03-16 23:53:00
6:53 PM,42.1,15.1,34,29.77,-9999.0,West,12.7,-,N/A,,Clear,280,2013-03-17 00:53:00
7:53 PM,34.0,16.0,48,29.82,-9999.0,West,10.4,-,N/A,,Clear,260,2013-03-17 01:53:00
8:53 PM,33.1,15.1,48,29.82,10.0,West,9.2,-,N/A,,Clear,260,2013-03-17 02:53:00
9:53 PM,30.9,12.9,47,29.83,10.0,WSW,5.8,-,N/A,,Clear,240,2013-03-17 03:53:00
10:53 PM,30.0,12.9,49,29.78,-9999.0,West,8.1,-,N/A,,Clear,280,2013-03-17 04:53:00
11:53 PM,32.0,10.9,42,29.71,-9999.0,Calm,Calm,-,N/A,,Clear,0,2013-03-17 05:53:00